Location: 433rd Scouts Home(Lloyd Manor Park, Etobicoke )
(43.6722°N, 79.5542°W)
Time: 06:32:38
(UTC-04:00)

ISS - Visible Passes

Search period start: 20 September 2021 00:00
Search period end: 30 September 2021 00:00
Orbit: 419 x 423 km, 51.6° (Epoch: 20 September)

Date Brightness Start Highest point End Pass type
(mag) Time Alt. Az. Time Alt. Az. Time Alt. Az.
20 Sep -2.0 21:07:46 10° W 21:10:46 28° NNW 21:11:52 23° NNE visible
21 Sep -2.4 20:20:36 10° W 20:23:45 36° NNW 20:26:52 10° NE visible
21 Sep -0.8 21:58:38 10° NW 21:59:52 16° NW 21:59:52 16° NW visible
22 Sep -1.7 21:11:30 10° WNW 21:14:10 21° N 21:14:47 20° N visible
23 Sep -1.8 20:24:18 10° WNW 20:27:06 24° NNW 20:29:40 11° NE visible
23 Sep -0.6 22:01:58 10° NW 22:02:40 14° NW 22:02:40 14° NW visible
24 Sep -2.0 19:37:04 10° WNW 19:40:02 28° NNW 19:43:00 10° NE visible
24 Sep -1.6 21:14:59 10° NW 21:17:31 21° N 21:17:31 21° N visible
25 Sep -1.7 20:27:55 10° NW 20:30:31 20° N 20:32:21 14° NE visible
25 Sep -0.4 22:04:59 10° NW 22:05:21 12° NW 22:05:21 12° NW visible
26 Sep -1.7 19:40:45 10° WNW 19:43:26 21° N 19:46:06 10° NE visible
26 Sep -1.7 21:18:07 10° NW 21:20:10 23° NNW 21:20:10 23° NNW visible
27 Sep -2.0 20:31:13 10° NW 20:33:57 23° N 20:35:00 20° NE visible
27 Sep -0.2 22:07:55 10° NW 22:08:00 11° NW 22:08:00 11° NW visible
28 Sep -1.8 19:44:13 10° NW 19:46:52 21° N 19:49:32 10° ENE visible
28 Sep -1.7 21:21:03 10° NW 21:22:51 26° NNW 21:22:51 26° NNW visible
29 Sep -2.7 20:34:12 10° NW 20:37:18 33° NNE 20:37:44 32° NE visible
